Eelde, Netherlands

10:02 AM CEST on October 17, 2017 (GMT +0200)
Eelde

Weather History for EHGG - May, 2013

Change the Weather History Date:

Sunday, May 5, 2013

  Actual Average Record
Temperature  
Mean Temperature 53 °F -  
Max Temperature 65 °F 63 °F 77 °F (2006)
Min Temperature 41 °F 44 °F 26 °F (2011)
Degree Days  
Heating Degree Days 12    
Growing Degree Days 3 (Base 50)    
Moisture  
Dew Point 45 °F    
Average Humidity 74    
Maximum Humidity 100    
Minimum Humidity 33    
Precipitation  
Precipitation 0.00 in 0.08 in - ()
Sea Level Pressure  
Sea Level Pressure 30.17 in    
Wind  
Wind Speed 6 mph ()    
Max Wind Speed 12 mph    
Max Gust Speed -    
Visibility 5.9 miles    
Events      
Averages and records for this station are not official NWS values.
T = Trace of Precipitation, MM = Missing Value Source: Averaged Metar Reports

Daily Weather History Graph

Daily Weather History Graph

Search for Another Location

Airport or City:

Trip Planner

Search our weather history database for the weather conditions in past years. The results will help you decide how hot, cold, wet, or windy it might be!

Date:

Astronomy

May. 05, 2013 Rise Set
Actual Time 5:52 AM CEST 9:09 PM CEST
Civil Twilight 5:11 AM CEST 9:50 PM CEST
Nautical Twilight 4:16 AM CEST 10:46 PM CEST
Astronomical Twilight 2:59 AM CEST 12:05 AM CEST
Moon 3:52 AM CEST (5/5) 4:18 PM CEST (5/5)
Length of Visible Light 16h 39m
Length of Day
15h 17m
Waning Crescent, 20% of the Moon is Illuminated
May 5
Waning Crescent
May 10
New
May 18
First Quarter
May 25
Full
May 31
Last Quarter

Hourly Weather History & Observations

Time (CEST) Temp. Windchill Dew Point Humidity Pressure Visibility Wind Dir Wind Speed Gust Speed Precip Events Conditions
12:25 AM 46.4 °F 42.4 °F 42.8 °F 87% 30.09 in 6.2 mi SW 8.1 mph - N/A   Unknown
12:55 AM 46.4 °F 42.4 °F 44.6 °F 93% 30.12 in 6.2 mi SSW 8.1 mph - N/A   Unknown
1:25 AM 46.4 °F 42.9 °F 44.6 °F 93% 30.12 in 6.2 mi SSW 6.9 mph - N/A   Unknown
1:55 AM 44.6 °F 40.7 °F 42.8 °F 93% 30.12 in 6.2 mi SW 6.9 mph - N/A   Unknown
2:00 AM 45 °F - 43 °F 90% 30.14 in 9 mi WSW 6.7 mph - -   Partly Cloudy
2:25 AM 44.6 °F 41.4 °F 42.8 °F 93% 30.12 in 6.2 mi SW 5.8 mph - N/A   Mostly Cloudy
2:55 AM 44.6 °F 42.2 °F 42.8 °F 93% 30.12 in 6.2 mi SW 4.6 mph - N/A   Mostly Cloudy
3:25 AM 42.8 °F 40.1 °F 42.8 °F 100% 30.12 in 3.7 mi SSW 4.6 mph - N/A   Scattered Clouds
3:55 AM 44.6 °F 41.4 °F 42.8 °F 93% 30.12 in 3.7 mi SSW 5.8 mph - N/A   Unknown
4:25 AM 42.8 °F 39.3 °F 42.8 °F 100% 30.12 in 3.1 mi South 5.8 mph - N/A   Mist
4:55 AM 42.8 °F 38.6 °F 42.8 °F 100% 30.12 in 3.1 mi SSW 6.9 mph - N/A   Mist
5:00 AM 42 °F - 42 °F 99% 30.14 in 3 mi SW 6.7 mph - -   Mist
5:25 AM 42.8 °F 40.1 °F 41.0 °F 93% 30.12 in 3.1 mi SW 4.6 mph - N/A   Mist
5:55 AM 42.8 °F 38.6 °F 41.0 °F 93% 30.12 in 3.1 mi SSW 6.9 mph - N/A   Mist
6:25 AM 42.8 °F 38.6 °F 42.8 °F 100% 30.12 in 3.1 mi SSW 6.9 mph - N/A   Mist
6:55 AM 44.6 °F 41.4 °F 42.8 °F 93% 30.15 in 3.1 mi SSW 5.8 mph - N/A   Mist
7:25 AM 46.4 °F 42.9 °F 44.6 °F 93% 30.15 in 4.3 mi SSW 6.9 mph - N/A   Unknown
7:55 AM 48.2 °F - 46.4 °F 93% 30.15 in 5.6 mi SSW 8.1 mph - N/A   Unknown
8:00 AM 48 °F - 46 °F 89% 30.18 in 6 mi SSW 8.9 mph - -   Partly Cloudy
8:25 AM 50.0 °F - 46.4 °F 87% 30.18 in 6.2 mi SW 10.4 mph - N/A   Mostly Cloudy
8:55 AM 50.0 °F - 46.4 °F 87% 30.18 in 6.2 mi SSW 10.4 mph - N/A   Overcast
9:25 AM 51.8 °F - 46.4 °F 82% 30.18 in 5.0 mi SW 11.5 mph - N/A   Overcast
9:55 AM 51.8 °F - 46.4 °F 82% 30.18 in 5.0 mi SW 10.4 mph - N/A   Partly Cloudy
10:25 AM 53.6 °F - 48.2 °F 82% 30.18 in 5.6 mi SW 8.1 mph - N/A   Scattered Clouds
10:55 AM 55.4 °F - 48.2 °F 77% 30.18 in 6.2 mi SW 8.1 mph - N/A   Unknown
11:00 AM 57 °F - 49 °F 65% 30.21 in 7 mi SW 6.7 mph - -   Scattered Clouds
11:25 AM 57.2 °F - 48.2 °F 72% 30.18 in 6.2 mi SW 5.8 mph - N/A   Unknown
11:55 AM 59.0 °F - 48.2 °F 67% 30.18 in 6.2 mi SSW 5.8 mph - N/A   Unknown
12:25 PM 60.8 °F - 48.2 °F 63% 30.18 in 6.2 mi SW 6.9 mph - N/A   Partly Cloudy
12:55 PM 62.6 °F - 44.6 °F 52% 30.18 in 6.2 mi WSW 6.9 mph - N/A   Unknown
1:25 PM 64.4 °F - 46.4 °F 52% 30.18 in 6.2 mi SW 8.1 mph - N/A   Partly Cloudy
1:55 PM 62.6 °F - 42.8 °F 48% 30.18 in 6.2 mi West 5.8 mph - N/A   Mostly Cloudy
2:00 PM 63 °F - 43 °F 37% 30.21 in 17 mi WSW 4.5 mph - -   Partly Cloudy
2:25 PM 64.4 °F - 44.6 °F 49% 30.18 in 6.2 mi WSW 6.9 mph - N/A   Partly Cloudy
2:55 PM 64.4 °F - 42.8 °F 45% 30.18 in 6.2 mi West 6.9 mph - N/A   Unknown
3:25 PM 64.4 °F - 42.8 °F 45% 30.18 in 6.2 mi WNW 6.9 mph - N/A   Unknown
3:55 PM 64.4 °F - 44.6 °F 49% 30.18 in 6.2 mi West 3.5 mph - N/A   Unknown
4:25 PM 64.4 °F - 41.0 °F 42% 30.18 in 6.2 mi Variable 2.3 mph - N/A   Unknown
4:55 PM 64.4 °F - 42.8 °F 45% 30.18 in 6.2 mi SSW 3.5 mph - N/A   Unknown
5:00 PM 64 °F - 42 °F 33% 30.20 in 22 mi SW 4.5 mph - -   Mostly Cloudy
5:25 PM 64.4 °F - 41.0 °F 42% 30.18 in 6.2 mi West 3.5 mph - N/A   Unknown
5:55 PM 62.6 °F - 48.2 °F 59% 30.18 in 6.2 mi Variable 8.1 mph - N/A   Unknown
6:25 PM 62.6 °F - 48.2 °F 59% 30.18 in 6.2 mi North 9.2 mph - N/A   Unknown
6:55 PM 60.8 °F - 48.2 °F 63% 30.18 in 6.2 mi North 10.4 mph - N/A   Unknown
7:25 PM 60.8 °F - 48.2 °F 63% 30.18 in 6.2 mi North 10.4 mph - N/A   Unknown
7:55 PM 59.0 °F - 48.2 °F 67% 30.21 in 6.2 mi North 8.1 mph - N/A   Unknown
8:00 PM 59 °F - 48 °F 58% 30.22 in 9 mi North 8.9 mph - -   Partly Cloudy
8:25 PM 57.2 °F - 46.4 °F 67% 30.21 in 6.2 mi North 6.9 mph - N/A   Unknown
8:55 PM 55.4 °F - 44.6 °F 67% 30.21 in 6.2 mi North 6.9 mph - N/A   Unknown
9:25 PM 53.6 °F - 42.8 °F 67% 30.21 in 6.2 mi North 8.1 mph - N/A   Unknown
9:55 PM 53.6 °F - 42.8 °F 67% 30.21 in 6.2 mi North 4.6 mph - N/A   Unknown
10:25 PM 51.8 °F - 42.8 °F 71% 30.24 in 6.2 mi NNE 4.6 mph - N/A   Unknown
10:55 PM 48.2 °F - 42.8 °F 82% 30.24 in 6.2 mi NE 4.6 mph - N/A   Unknown
11:00 PM 48 °F - 42 °F 74% 30.25 in 9 mi NE 4.5 mph - -   Scattered Clouds
11:25 PM 48.2 °F - 44.6 °F 87% 30.24 in 6.2 mi NE 4.6 mph - N/A   Unknown
11:55 PM 48.2 °F - 44.6 °F 87% 30.24 in 4.3 mi NE 3.5 mph - N/A   Unknown